Time,TemperatureF,DewpointF,PressureIn,WindDirection,WindDirectionDegrees,WindSpeedMPH,WindSpeedGustMPH,Humidity,HourlyPrecipIn,Conditions,Clouds,dailyrainin,SoftwareType,DateUTC
2013-07-08 00:00:00,59.5,52.3,29.73,SW,233,1.0,1.0,77,0.00,,,0.00,Wunderground v.1.15,2013-07-08 07:00:00,
2013-07-08 00:10:00,59.4,52.5,29.73,SW,214,1.0,3.0,78,0.00,,,0.00,Wunderground v.1.15,2013-07-08 07:10:00,
2013-07-08 00:15:00,59.4,52.2,29.73,WSW,252,2.0,3.0,77,0.00,,,0.00,Wunderground v.1.15,2013-07-08 07:15:00,
2013-07-08 00:20:00,59.3,52.1,29.73,SSW,202,2.0,2.0,77,0.00,,,0.00,Wunderground v.1.15,2013-07-08 07:20:00,
2013-07-08 00:25:00,59.2,52.3,29.73,WSW,257,2.0,2.0,78,0.00,,,0.00,Wunderground v.1.15,2013-07-08 07:25:00,
2013-07-08 00:30:00,59.1,52.2,29.73,WSW,250,1.0,1.0,78,0.00,,,0.00,Wunderground v.1.15,2013-07-08 07:30:00,
2013-07-08 00:35:00,58.9,52.1,29.73,WSW,254,1.0,1.0,78,0.00,,,0.00,Wunderground v.1.15,2013-07-08 07:35:00,
2013-07-08 00:40:00,58.7,52.2,29.73,WSW,238,1.0,1.0,79,0.00,,,0.00,Wunderground v.1.15,2013-07-08 07:40:00,
2013-07-08 00:45:00,58.5,52.0,29.74,WSW,243,1.0,1.0,79,0.00,,,0.00,Wunderground v.1.15,2013-07-08 07:45:00,
2013-07-08 00:55:00,58.3,52.2,29.74,WSW,251,1.0,2.0,80,0.00,,,0.00,Wunderground v.1.15,2013-07-08 07:55:00,
2013-07-08 01:00:00,58.2,52.1,29.74,WSW,243,1.0,2.0,80,0.00,,,0.00,Wunderground v.1.15,2013-07-08 08:00:00,
2013-07-08 01:05:00,58.0,52.2,29.74,WSW,239,1.0,2.0,81,0.00,,,0.00,Wunderground v.1.15,2013-07-08 08:05:00,
2013-07-08 01:10:00,57.8,52.0,29.74,SW,227,0.0,0.0,81,0.00,,,0.00,Wunderground v.1.15,2013-07-08 08:10:00,
2013-07-08 01:15:00,57.7,51.9,29.74,WSW,254,0.0,0.0,81,0.00,,,0.00,Wunderground v.1.15,2013-07-08 08:15:00,
2013-07-08 01:25:00,57.4,51.9,29.74,WSW,243,1.0,1.0,82,0.00,,,0.00,Wunderground v.1.15,2013-07-08 08:25:00,
2013-07-08 01:35:00,57.2,52.1,29.74,SW,234,0.0,0.0,83,0.00,,,0.00,Wunderground v.1.15,2013-07-08 08:35:00,
2013-07-08 01:40:00,57.0,51.9,29.74,SW,234,0.0,0.0,83,0.00,,,0.00,Wunderground v.1.15,2013-07-08 08:40:00,
2013-07-08 01:45:00,57.0,51.9,29.74,SW,236,0.0,0.0,83,0.00,,,0.00,Wunderground v.1.15,2013-07-08 08:45:00,
2013-07-08 01:50:00,56.9,51.8,29.74,WSW,237,0.0,0.0,83,0.00,,,0.00,Wunderground v.1.15,2013-07-08 08:50:00,
2013-07-08 01:55:00,56.8,52.0,29.74,SW,234,0.0,1.0,84,0.00,,,0.00,Wunderground v.1.15,2013-07-08 08:55:00,
2013-07-08 02:05:00,56.7,51.9,29.74,WSW,248,1.0,1.0,84,0.00,,,0.00,Wunderground v.1.15,2013-07-08 09:05:00,
2013-07-08 02:10:00,56.6,51.8,29.74,WSW,248,0.0,0.0,84,0.00,,,0.00,Wunderground v.1.15,2013-07-08 09:10:00,
2013-07-08 02:15:00,56.5,51.7,29.74,WSW,248,0.0,0.0,84,0.00,,,0.00,Wunderground v.1.15,2013-07-08 09:15:00,
2013-07-08 02:20:00,56.3,51.8,29.74,WSW,248,0.0,0.0,85,0.00,,,0.00,Wunderground v.1.15,2013-07-08 09:20:00,
2013-07-08 02:25:00,56.2,51.7,29.74,WSW,248,0.0,0.0,85,0.00,,,0.00,Wunderground v.1.15,2013-07-08 09:25:00,
2013-07-08 02:35:00,56.0,51.9,29.74,WSW,248,0.0,0.0,86,0.00,,,0.00,Wunderground v.1.15,2013-07-08 09:35:00,
2013-07-08 02:40:00,55.8,51.4,29.74,WSW,248,0.0,0.0,85,0.00,,,0.00,Wunderground v.1.15,2013-07-08 09:40:00,
2013-07-08 02:45:00,55.7,51.6,29.74,WSW,248,0.0,0.0,86,0.00,,,0.00,Wunderground v.1.15,2013-07-08 09:45:00,
2013-07-08 02:55:00,55.3,51.2,29.74,WSW,248,0.0,0.0,86,0.00,,,0.00,Wunderground v.1.15,2013-07-08 09:55:00,
2013-07-08 03:00:00,55.2,51.4,29.74,WSW,248,0.0,0.0,87,0.00,,,0.00,Wunderground v.1.15,2013-07-08 10:00:00,
2013-07-08 03:10:00,55.4,52.2,29.74,SW,227,0.0,0.0,89,0.00,,,0.00,Wunderground v.1.15,2013-07-08 10:10:00,
2013-07-08 03:15:00,55.4,52.2,29.74,SSW,203,0.0,0.0,89,0.00,,,0.00,Wunderground v.1.15,2013-07-08 10:15:00,
2013-07-08 03:20:00,55.3,51.8,29.74,SSW,203,0.0,0.0,88,0.00,,,0.00,Wunderground v.1.15,2013-07-08 10:20:00,
2013-07-08 03:25:00,55.2,52.0,29.74,SSW,205,0.0,0.0,89,0.00,,,0.00,Wunderground v.1.15,2013-07-08 10:25:00,
2013-07-08 03:30:00,55.1,51.6,29.74,SSW,205,0.0,0.0,88,0.00,,,0.00,Wunderground v.1.15,2013-07-08 10:30:00,
2013-07-08 03:40:00,55.0,51.8,29.75,SSW,205,0.0,0.0,89,0.00,,,0.00,Wunderground v.1.15,2013-07-08 10:40:00,
2013-07-08 03:45:00,55.0,51.8,29.75,SW,231,0.0,0.0,89,0.00,,,0.00,Wunderground v.1.15,2013-07-08 10:45:00,
2013-07-08 03:55:00,55.0,51.8,29.75,SW,229,0.0,1.0,89,0.00,,,0.00,Wunderground v.1.15,2013-07-08 10:55:00,
2013-07-08 04:00:00,55.0,51.8,29.75,SW,231,1.0,1.0,89,0.00,,,0.00,Wunderground v.1.15,2013-07-08 11:00:00,
2013-07-08 04:05:00,55.0,51.8,29.75,WSW,247,0.0,1.0,89,0.00,,,0.00,Wunderground v.1.15,2013-07-08 11:05:00,
2013-07-08 04:10:00,55.0,52.1,29.75,WSW,246,0.0,0.0,90,0.00,,,0.00,Wunderground v.1.15,2013-07-08 11:10:00,
2013-07-08 04:20:00,55.1,52.2,29.75,WSW,246,0.0,0.0,90,0.00,,,0.00,Wunderground v.1.15,2013-07-08 11:20:00,
2013-07-08 04:25:00,55.2,52.3,29.75,WSW,246,0.0,0.0,90,0.00,,,0.00,Wunderground v.1.15,2013-07-08 11:25:00,
2013-07-08 04:30:00,55.3,52.4,29.76,WSW,246,0.0,0.0,90,0.00,,,0.00,Wunderground v.1.15,2013-07-08 11:30:00,
2013-07-08 04:35:00,55.4,52.5,29.76,SW,226,0.0,0.0,90,0.00,,,0.00,Wunderground v.1.15,2013-07-08 11:35:00,
2013-07-08 04:40:00,55.5,52.6,29.76,SW,236,0.0,0.0,90,0.00,,,0.00,Wunderground v.1.15,2013-07-08 11:40:00,
2013-07-08 04:50:00,55.6,52.7,29.76,SW,236,0.0,0.0,90,0.00,,,0.00,Wunderground v.1.15,2013-07-08 11:50:00,
2013-07-08 04:55:00,55.6,52.7,29.76,WSW,252,0.0,0.0,90,0.00,,,0.00,Wunderground v.1.15,2013-07-08 11:55:00,
2013-07-08 05:00:00,55.7,52.8,29.76,WSW,252,1.0,1.0,90,0.00,,,0.00,Wunderground v.1.15,2013-07-08 12:00:00,
2013-07-08 05:05:00,55.6,52.7,29.76,WSW,252,1.0,2.0,90,0.00,,,0.00,Wunderground v.1.15,2013-07-08 12:05:00,
2013-07-08 05:10:00,55.7,52.8,29.76,SW,226,0.0,0.0,90,0.00,,,0.00,Wunderground v.1.15,2013-07-08 12:10:00,
2013-07-08 05:20:00,55.7,52.8,29.76,SW,230,0.0,0.0,90,0.00,,,0.00,Wunderground v.1.15,2013-07-08 12:20:00,
2013-07-08 05:25:00,55.7,52.8,29.76,SW,233,0.0,0.0,90,0.00,,,0.00,Wunderground v.1.15,2013-07-08 12:25:00,
2013-07-08 05:30:00,55.7,52.8,29.76,SW,233,0.0,0.0,90,0.00,,,0.00,Wunderground v.1.15,2013-07-08 12:30:00,
2013-07-08 05:40:00,55.8,52.9,29.76,SW,234,0.0,0.0,90,0.00,,,0.00,Wunderground v.1.15,2013-07-08 12:40:00,
2013-07-08 05:45:00,55.8,52.9,29.76,SW,221,0.0,0.0,90,0.00,,,0.00,Wunderground v.1.15,2013-07-08 12:45:00,
2013-07-08 05:50:00,55.8,52.9,29.76,WSW,250,0.0,3.0,90,0.00,,,0.00,Wunderground v.1.15,2013-07-08 12:50:00,
2013-07-08 05:55:00,55.9,53.0,29.76,SW,216,1.0,3.0,90,0.00,,,0.00,Wunderground v.1.15,2013-07-08 12:55:00,
2013-07-08 06:00:00,55.9,53.0,29.77,SW,216,1.0,1.0,90,0.00,,,0.00,Wunderground v.1.15,2013-07-08 13:00:00,
2013-07-08 06:05:00,55.9,53.0,29.77,SSW,192,1.0,2.0,90,0.00,,,0.00,Wunderground v.1.15,2013-07-08 13:05:00,
2013-07-08 06:10:00,56.0,53.1,29.77,SW,219,1.0,1.0,90,0.00,,,0.00,Wunderground v.1.15,2013-07-08 13:10:00,
2013-07-08 06:15:00,56.0,53.1,29.77,WSW,250,1.0,1.0,90,0.00,,,0.00,Wunderground v.1.15,2013-07-08 13:15:00,
2013-07-08 06:25:00,56.0,53.1,29.77,WSW,244,1.0,1.0,90,0.00,,,0.00,Wunderground v.1.15,2013-07-08 13:25:00,
2013-07-08 06:30:00,56.1,53.2,29.77,WSW,243,1.0,1.0,90,0.00,,,0.00,Wunderground v.1.15,2013-07-08 13:30:00,
2013-07-08 06:35:00,56.2,53.3,29.78,SW,236,1.0,3.0,90,0.00,,,0.00,Wunderground v.1.15,2013-07-08 13:35:00,
2013-07-08 06:40:00,56.2,53.0,29.78,WSW,257,2.0,2.0,89,0.00,,,0.00,Wunderground v.1.15,2013-07-08 13:40:00,
2013-07-08 06:45:00,56.3,53.1,29.78,West,272,2.0,2.0,89,0.00,,,0.00,Wunderground v.1.15,2013-07-08 13:45:00,
2013-07-08 06:50:00,56.3,53.1,29.78,WSW,252,2.0,2.0,89,0.00,,,0.00,Wunderground v.1.15,2013-07-08 13:50:00,
2013-07-08 07:00:00,56.4,53.2,29.78,SW,220,3.0,4.0,89,0.00,,,0.00,Wunderground v.1.15,2013-07-08 14:00:00,
2013-07-08 07:05:00,56.4,53.2,29.79,WSW,252,3.0,6.0,89,0.00,,,0.00,Wunderground v.1.15,2013-07-08 14:05:00,
2013-07-08 07:10:00,56.5,53.3,29.79,SW,220,2.0,2.0,89,0.00,,,0.00,Wunderground v.1.15,2013-07-08 14:10:00,
2013-07-08 07:15:00,56.5,53.3,29.79,WSW,237,2.0,4.0,89,0.00,,,0.00,Wunderground v.1.15,2013-07-08 14:15:00,
2013-07-08 07:20:00,56.6,53.4,29.79,SSW,210,3.0,4.0,89,0.00,,,0.00,Wunderground v.1.15,2013-07-08 14:20:00,
2013-07-08 07:25:00,56.7,53.5,29.79,WSW,244,3.0,4.0,89,0.00,,,0.00,Wunderground v.1.15,2013-07-08 14:25:00,
2013-07-08 07:30:00,56.8,53.3,29.79,SSW,207,3.0,3.0,88,0.00,,,0.00,Wunderground v.1.15,2013-07-08 14:30:00,
2013-07-08 07:40:00,57.1,53.6,29.80,SSW,210,3.0,4.0,88,0.00,,,0.00,Wunderground v.1.15,2013-07-08 14:40:00,
2013-07-08 07:45:00,57.4,53.6,29.80,SSW,212,3.0,4.0,87,0.00,,,0.00,Wunderground v.1.15,2013-07-08 14:45:00,
2013-07-08 07:50:00,57.7,53.5,29.80,SSE,153,3.0,3.0,86,0.00,,,0.00,Wunderground v.1.15,2013-07-08 14:50:00,
2013-07-08 07:55:00,58.2,54.0,29.80,WSW,237,3.0,4.0,86,0.00,,,0.00,Wunderground v.1.15,2013-07-08 14:55:00,
2013-07-08 08:00:00,58.9,54.4,29.80,South,172,2.0,2.0,85,0.00,,,0.00,Wunderground v.1.15,2013-07-08 15:00:00,
2013-07-08 08:05:00,59.7,54.5,29.80,West,260,2.0,2.0,83,0.00,,,0.00,Wunderground v.1.15,2013-07-08 15:05:00,
2013-07-08 08:15:00,60.7,55.2,29.80,West,265,1.0,2.0,82,0.00,,,0.00,Wunderground v.1.15,2013-07-08 15:15:00,
2013-07-08 08:20:00,60.7,54.5,29.80,SW,219,2.0,2.0,80,0.00,,,0.00,Wunderground v.1.15,2013-07-08 15:20:00,
2013-07-08 08:25:00,60.9,54.7,29.80,SW,236,2.0,2.0,80,0.00,,,0.00,Wunderground v.1.15,2013-07-08 15:25:00,
2013-07-08 08:30:00,61.4,54.8,29.80,SSW,196,2.0,2.0,79,0.00,,,0.00,Wunderground v.1.15,2013-07-08 15:30:00,
2013-07-08 08:40:00,62.2,54.9,29.81,SSW,199,2.0,4.0,77,0.00,,,0.00,Wunderground v.1.15,2013-07-08 15:40:00,
2013-07-08 08:45:00,62.3,54.6,29.81,WSW,252,2.0,4.0,76,0.00,,,0.00,Wunderground v.1.15,2013-07-08 15:45:00,
2013-07-08 08:50:00,62.6,54.9,29.80,WSW,248,2.0,2.0,76,0.00,,,0.00,Wunderground v.1.15,2013-07-08 15:50:00,
2013-07-08 08:55:00,62.5,54.8,29.80,WSW,247,1.0,2.0,76,0.00,,,0.00,Wunderground v.1.15,2013-07-08 15:55:00,
2013-07-08 09:00:00,62.9,55.2,29.81,WNW,282,2.0,2.0,76,0.00,,,0.00,Wunderground v.1.15,2013-07-08 16:00:00,
2013-07-08 09:05:00,63.6,55.2,29.80,WSW,252,1.0,2.0,74,0.00,,,0.00,Wunderground v.1.15,2013-07-08 16:05:00,
2013-07-08 09:10:00,63.9,55.4,29.81,WSW,244,2.0,2.0,74,0.00,,,0.00,Wunderground v.1.15,2013-07-08 16:10:00,
2013-07-08 09:15:00,64.2,55.4,29.80,WSW,240,2.0,4.0,73,0.00,,,0.00,Wunderground v.1.15,2013-07-08 16:15:00,
2013-07-08 09:25:00,64.7,55.5,29.80,WNW,288,2.0,2.0,72,0.00,,,0.00,Wunderground v.1.15,2013-07-08 16:25:00,
2013-07-08 09:30:00,65.0,55.4,29.80,South,185,2.0,2.0,71,0.00,,,0.00,Wunderground v.1.15,2013-07-08 16:30:00,
2013-07-08 09:35:00,65.5,55.5,29.80,WSW,257,1.0,2.0,70,0.00,,,0.00,Wunderground v.1.15,2013-07-08 16:35:00,
2013-07-08 09:40:00,66.3,55.4,29.80,SW,221,1.0,2.0,68,0.00,,,0.00,Wunderground v.1.15,2013-07-08 16:40:00,
2013-07-08 09:50:00,67.1,55.4,29.80,SSE,158,2.0,2.0,66,0.00,,,0.00,Wunderground v.1.15,2013-07-08 16:50:00,
2013-07-08 09:55:00,67.6,55.4,29.80,WNW,290,2.0,2.0,65,0.00,,,0.00,Wunderground v.1.15,2013-07-08 16:55:00,
2013-07-08 10:00:00,68.0,55.4,29.81,WSW,255,2.0,2.0,64,0.00,,,0.00,Wunderground v.1.15,2013-07-08 17:00:00,
2013-07-08 10:10:00,68.8,55.7,29.81,West,272,1.0,1.0,63,0.00,,,0.00,Wunderground v.1.15,2013-07-08 17:10:00,
2013-07-08 10:15:00,69.6,56.0,29.81,SW,233,1.0,1.0,62,0.00,,,0.00,Wunderground v.1.15,2013-07-08 17:15:00,
2013-07-08 10:20:00,69.8,55.3,29.81,SSW,212,1.0,3.0,60,0.00,,,0.00,Wunderground v.1.15,2013-07-08 17:20:00,
2013-07-08 10:25:00,69.9,55.4,29.80,WSW,257,2.0,3.0,60,0.00,,,0.00,Wunderground v.1.15,2013-07-08 17:25:00,
2013-07-08 10:35:00,71.0,55.5,29.81,WSW,257,1.0,4.0,58,0.00,,,0.00,Wunderground v.1.15,2013-07-08 17:35:00,
2013-07-08 10:40:00,71.1,55.1,29.81,West,274,2.0,2.0,57,0.00,,,0.00,Wunderground v.1.15,2013-07-08 17:40:00,
2013-07-08 10:50:00,72.1,55.5,29.81,WSW,246,1.0,1.0,56,0.00,,,0.00,Wunderground v.1.15,2013-07-08 17:50:00,
2013-07-08 10:55:00,72.9,55.8,29.81,WSW,253,1.0,1.0,55,0.00,,,0.00,Wunderground v.1.15,2013-07-08 17:55:00,
2013-07-08 11:05:00,73.6,55.4,29.81,SW,227,2.0,2.0,53,0.00,,,0.00,Wunderground v.1.15,2013-07-08 18:05:00,
2013-07-08 11:15:00,74.2,55.4,29.81,WSW,243,2.0,5.0,52,0.00,,,0.00,Wunderground v.1.15,2013-07-08 18:15:00,
2013-07-08 11:35:00,75.8,55.3,29.80,South,169,3.0,3.0,49,0.00,,,0.00,Wunderground v.1.15,2013-07-08 18:35:00,
2013-07-08 11:40:00,76.2,55.1,29.81,SW,233,3.0,3.0,48,0.00,,,0.00,Wunderground v.1.15,2013-07-08 18:40:00,
2013-07-08 11:50:00,77.2,55.4,29.80,SSW,199,3.0,5.0,47,0.00,,,0.00,Wunderground v.1.15,2013-07-08 18:50:00,
2013-07-08 11:55:00,77.9,54.8,29.80,SE,124,3.0,5.0,45,0.00,,,0.00,Wunderground v.1.15,2013-07-08 18:55:00,
2013-07-08 12:10:00,78.6,55.5,29.80,West,273,3.0,4.0,45,0.00,,,0.00,Wunderground v.1.15,2013-07-08 19:10:00,
2013-07-08 12:20:00,79.2,54.8,29.80,WSW,253,3.0,7.0,43,0.00,,,0.00,Wunderground v.1.15,2013-07-08 19:20:00,
2013-07-08 12:35:00,80.3,55.1,29.80,WNW,299,3.0,4.0,42,0.00,,,0.00,Wunderground v.1.15,2013-07-08 19:35:00,
2013-07-08 12:40:00,81.2,53.9,29.80,WSW,237,3.0,3.0,39,0.00,,,0.00,Wunderground v.1.15,2013-07-08 19:40:00,
2013-07-08 12:50:00,81.5,54.8,29.80,SW,219,3.0,3.0,40,0.00,,,0.00,Wunderground v.1.15,2013-07-08 19:50:00,
2013-07-08 13:00:00,82.9,54.0,29.80,West,279,3.0,4.0,37,0.00,,,0.00,Wunderground v.1.15,2013-07-08 20:00:00,
2013-07-08 13:10:00,82.8,53.9,29.79,SE,138,3.0,3.0,37,0.00,,,0.00,Wunderground v.1.15,2013-07-08 20:10:00,
2013-07-08 13:15:00,83.8,54.7,29.80,NW,308,2.0,3.0,37,0.00,,,0.00,Wunderground v.1.15,2013-07-08 20:15:00,
2013-07-08 13:20:00,84.5,55.4,29.79,NW,306,2.0,2.0,37,0.00,,,0.00,Wunderground v.1.15,2013-07-08 20:20:00,
2013-07-08 13:35:00,85.2,53.7,29.79,SSW,209,1.0,3.0,34,0.00,,,0.00,Wunderground v.1.15,2013-07-08 20:35:00,
2013-07-08 13:45:00,86.6,53.2,29.79,WSW,242,2.0,2.0,32,0.00,,,0.00,Wunderground v.1.15,2013-07-08 20:45:00,
2013-07-08 13:50:00,86.6,54.1,29.79,WNW,283,1.0,1.0,33,0.00,,,0.00,Wunderground v.1.15,2013-07-08 20:50:00,
2013-07-08 13:55:00,86.5,53.1,29.79,North,6,2.0,2.0,32,0.00,,,0.00,Wunderground v.1.15,2013-07-08 20:55:00,
2013-07-08 14:00:00,86.1,53.6,29.79,West,279,2.0,3.0,33,0.00,,,0.00,Wunderground v.1.15,2013-07-08 21:00:00,
2013-07-08 14:10:00,86.9,51.7,29.79,West,261,4.0,4.0,30,0.00,,,0.00,Wunderground v.1.15,2013-07-08 21:10:00,
2013-07-08 14:15:00,87.2,52.0,29.78,NNW,335,3.0,4.0,30,0.00,,,0.00,Wunderground v.1.15,2013-07-08 21:15:00,
2013-07-08 14:25:00,87.7,49.6,29.78,SSW,199,3.0,5.0,27,0.00,,,0.00,Wunderground v.1.15,2013-07-08 21:25:00,
2013-07-08 14:30:00,88.4,51.1,29.78,SSW,213,5.0,5.0,28,0.00,,,0.00,Wunderground v.1.15,2013-07-08 21:30:00,
2013-07-08 14:35:00,88.5,49.2,29.78,SW,224,4.0,5.0,26,0.00,,,0.00,Wunderground v.1.15,2013-07-08 21:35:00,
2013-07-08 14:50:00,89.0,49.7,29.78,West,264,4.0,4.0,26,0.00,,,0.00,Wunderground v.1.15,2013-07-08 21:50:00,
2013-07-08 14:55:00,89.1,48.7,29.78,WNW,285,3.0,4.0,25,0.00,,,0.00,Wunderground v.1.15,2013-07-08 21:55:00,
2013-07-08 15:00:00,89.2,48.8,29.78,WSW,237,4.0,4.0,25,0.00,,,0.00,Wunderground v.1.15,2013-07-08 22:00:00,
2013-07-08 15:05:00,89.3,48.9,29.78,WSW,244,3.0,4.0,25,0.00,,,0.00,Wunderground v.1.15,2013-07-08 22:05:00,
2013-07-08 15:15:00,90.2,48.5,29.78,West,271,3.0,3.0,24,0.00,,,0.00,Wunderground v.1.15,2013-07-08 22:15:00,
2013-07-08 15:20:00,89.9,47.1,29.78,SSE,165,4.0,4.0,23,0.00,,,0.00,Wunderground v.1.15,2013-07-08 22:20:00,
2013-07-08 15:30:00,90.0,48.4,29.78,WNW,288,3.0,4.0,24,0.00,,,0.00,Wunderground v.1.15,2013-07-08 22:30:00,
2013-07-08 15:35:00,90.8,49.0,29.77,WSW,258,3.0,5.0,24,0.00,,,0.00,Wunderground v.1.15,2013-07-08 22:35:00,
2013-07-08 15:50:00,90.9,49.1,29.77,SW,233,3.0,6.0,24,0.00,,,0.00,Wunderground v.1.15,2013-07-08 22:50:00,
2013-07-08 16:05:00,90.3,48.6,29.77,West,281,4.0,5.0,24,0.00,,,0.00,Wunderground v.1.15,2013-07-08 23:05:00,
2013-07-08 16:10:00,90.8,47.9,29.77,WSW,240,3.0,3.0,23,0.00,,,0.00,Wunderground v.1.15,2013-07-08 23:10:00,
2013-07-08 16:20:00,91.0,48.1,29.77,SSW,212,4.0,6.0,23,0.00,,,0.00,Wunderground v.1.15,2013-07-08 23:20:00,
2013-07-08 16:25:00,90.7,47.8,29.77,West,264,4.0,6.0,23,0.00,,,0.00,Wunderground v.1.15,2013-07-08 23:25:00,
2013-07-08 16:30:00,90.6,46.5,29.77,WSW,255,4.0,4.0,22,0.00,,,0.00,Wunderground v.1.15,2013-07-08 23:30:00,
2013-07-08 16:40:00,91.0,48.1,29.76,WNW,283,4.0,4.0,23,0.00,,,0.00,Wunderground v.1.15,2013-07-08 23:40:00,
2013-07-08 16:45:00,91.1,48.1,29.76,SW,221,4.0,4.0,23,0.00,,,0.00,Wunderground v.1.15,2013-07-08 23:45:00,
2013-07-08 17:10:00,91.1,48.1,29.76,SSE,151,4.0,4.0,23,0.00,,,0.00,Wunderground v.1.15,2013-07-09 00:10:00,
2013-07-08 17:25:00,90.8,46.7,29.76,WNW,286,4.0,4.0,22,0.00,,,0.00,Wunderground v.1.15,2013-07-09 00:25:00,
2013-07-08 17:30:00,90.7,46.6,29.76,West,267,4.0,5.0,22,0.00,,,0.00,Wunderground v.1.15,2013-07-09 00:30:00,
2013-07-08 17:35:00,90.3,47.5,29.76,West,277,5.0,6.0,23,0.00,,,0.00,Wunderground v.1.15,2013-07-09 00:35:00,
2013-07-08 17:45:00,90.3,46.3,29.76,West,278,4.0,6.0,22,0.00,,,0.00,Wunderground v.1.15,2013-07-09 00:45:00,
2013-07-08 17:50:00,90.4,47.6,29.76,SW,233,4.0,12.0,23,0.00,,,0.00,Wunderground v.1.15,2013-07-09 00:50:00,
2013-07-08 17:55:00,89.9,46.0,29.76,West,265,4.0,12.0,22,0.00,,,0.00,Wunderground v.1.15,2013-07-09 00:55:00,
2013-07-08 18:00:00,90.1,47.3,29.75,WSW,257,5.0,5.0,23,0.00,,,0.00,Wunderground v.1.15,2013-07-09 01:00:00,
2013-07-08 18:05:00,90.1,47.3,29.76,SW,236,4.0,5.0,23,0.00,,,0.00,Wunderground v.1.15,2013-07-09 01:05:00,
2013-07-08 18:10:00,89.9,47.1,29.76,SW,224,4.0,4.0,23,0.00,,,0.00,Wunderground v.1.15,2013-07-09 01:10:00,
2013-07-08 18:15:00,89.5,46.8,29.76,WNW,290,4.0,5.0,23,0.00,,,0.00,Wunderground v.1.15,2013-07-09 01:15:00,
2013-07-08 18:20:00,89.3,44.2,29.76,WNW,301,5.0,5.0,21,0.00,,,0.00,Wunderground v.1.15,2013-07-09 01:20:00,
2013-07-08 18:25:00,89.3,44.2,29.76,WSW,245,5.0,5.0,21,0.00,,,0.00,Wunderground v.1.15,2013-07-09 01:25:00,
2013-07-08 18:30:00,89.0,42.7,29.76,SSW,209,5.0,8.0,20,0.00,,,0.00,Wunderground v.1.15,2013-07-09 01:30:00,
2013-07-08 18:40:00,88.9,45.1,29.76,WNW,286,5.0,5.0,22,0.00,,,0.00,Wunderground v.1.15,2013-07-09 01:40:00,
2013-07-08 18:55:00,88.0,48.8,29.76,West,275,4.0,5.0,26,0.00,,,0.00,Wunderground v.1.15,2013-07-09 01:55:00,
2013-07-08 19:10:00,87.6,50.5,29.77,West,280,3.0,3.0,28,0.00,,,0.00,Wunderground v.1.15,2013-07-09 02:10:00,
2013-07-08 19:25:00,87.5,52.2,29.77,West,276,1.0,2.0,30,0.00,,,0.00,Wunderground v.1.15,2013-07-09 02:25:00,
2013-07-08 19:35:00,86.2,50.2,29.77,WSW,250,2.0,3.0,29,0.00,,,0.00,Wunderground v.1.15,2013-07-09 02:35:00,
2013-07-08 19:50:00,84.2,52.8,29.78,West,279,2.0,5.0,34,0.00,,,0.00,Wunderground v.1.15,2013-07-09 02:50:00,
2013-07-08 19:55:00,83.3,53.6,29.78,West,274,2.0,5.0,36,0.00,,,0.00,Wunderground v.1.15,2013-07-09 02:55:00,
2013-07-08 20:00:00,82.7,53.8,29.78,West,262,2.0,2.0,37,0.00,,,0.00,Wunderground v.1.15,2013-07-09 03:00:00,
2013-07-08 20:05:00,82.1,54.0,29.78,West,262,0.0,2.0,38,0.00,,,0.00,Wunderground v.1.15,2013-07-09 03:05:00,
2013-07-08 20:15:00,80.6,54.7,29.78,WSW,237,2.0,3.0,41,0.00,,,0.00,Wunderground v.1.15,2013-07-09 03:15:00,
2013-07-08 20:30:00,78.7,53.0,29.78,West,278,2.0,2.0,41,0.00,,,0.00,Wunderground v.1.15,2013-07-09 03:30:00,
2013-07-08 20:40:00,77.7,52.8,29.79,WSW,239,1.0,2.0,42,0.00,,,0.00,Wunderground v.1.15,2013-07-09 03:40:00,
2013-07-08 20:50:00,76.6,52.4,29.79,SW,233,2.0,2.0,43,0.00,,,0.00,Wunderground v.1.15,2013-07-09 03:50:00,
2013-07-08 21:00:00,76.1,52.6,29.80,West,261,1.0,1.0,44,0.00,,,0.00,Wunderground v.1.15,2013-07-09 04:00:00,
2013-07-08 21:05:00,75.8,52.3,29.80,West,279,1.0,2.0,44,0.00,,,0.00,Wunderground v.1.15,2013-07-09 04:05:00,
2013-07-08 21:10:00,75.5,52.1,29.80,WSW,250,2.0,2.0,44,0.00,,,0.00,Wunderground v.1.15,2013-07-09 04:10:00,
2013-07-08 21:15:00,75.2,51.8,29.80,WSW,252,1.0,2.0,44,0.00,,,0.00,Wunderground v.1.15,2013-07-09 04:15:00,
2013-07-08 21:20:00,74.9,52.1,29.80,WSW,252,0.0,0.0,45,0.00,,,0.00,Wunderground v.1.15,2013-07-09 04:20:00,
2013-07-08 21:25:00,74.5,51.8,29.80,SW,224,0.0,0.0,45,0.00,,,0.00,Wunderground v.1.15,2013-07-09 04:25:00,
2013-07-08 21:30:00,74.2,52.1,29.80,WSW,237,0.0,0.0,46,0.00,,,0.00,Wunderground v.1.15,2013-07-09 04:30:00,
2013-07-08 21:35:00,73.9,52.4,29.81,WSW,237,0.0,0.0,47,0.00,,,0.00,Wunderground v.1.15,2013-07-09 04:35:00,
2013-07-08 21:40:00,73.6,52.7,29.81,WSW,242,0.0,3.0,48,0.00,,,0.00,Wunderground v.1.15,2013-07-09 04:40:00,
2013-07-08 21:45:00,73.3,52.4,29.81,West,262,1.0,3.0,48,0.00,,,0.00,Wunderground v.1.15,2013-07-09 04:45:00,
2013-07-08 21:50:00,73.1,52.2,29.81,SW,223,1.0,1.0,48,0.00,,,0.00,Wunderground v.1.15,2013-07-09 04:50:00,
2013-07-08 22:00:00,72.5,52.2,29.82,SSW,200,1.0,1.0,49,0.00,,,0.00,Wunderground v.1.15,2013-07-09 05:00:00,
2013-07-08 22:10:00,71.9,51.1,29.82,WSW,250,1.0,1.0,48,0.00,,,0.00,Wunderground v.1.15,2013-07-09 05:10:00,
2013-07-08 22:15:00,71.7,52.1,29.82,SSW,195,1.0,1.0,50,0.00,,,0.00,Wunderground v.1.15,2013-07-09 05:15:00,
2013-07-08 22:20:00,71.3,52.8,29.82,SSW,193,1.0,1.0,52,0.00,,,0.00,Wunderground v.1.15,2013-07-09 05:20:00,
2013-07-08 22:25:00,70.9,53.4,29.82,SW,226,1.0,1.0,54,0.00,,,0.00,Wunderground v.1.15,2013-07-09 05:25:00,
2013-07-08 22:30:00,70.4,53.0,29.82,SSW,195,1.0,1.0,54,0.00,,,0.00,Wunderground v.1.15,2013-07-09 05:30:00,
2013-07-08 22:35:00,70.1,52.7,29.82,SSW,195,1.0,1.0,54,0.00,,,0.00,Wunderground v.1.15,2013-07-09 05:35:00,
2013-07-08 22:40:00,69.9,53.0,29.83,SSE,166,1.0,1.0,55,0.00,,,0.00,Wunderground v.1.15,2013-07-09 05:40:00,
2013-07-08 22:50:00,69.7,52.8,29.83,SW,228,1.0,1.0,55,0.00,,,0.00,Wunderground v.1.15,2013-07-09 05:50:00,
2013-07-08 23:00:00,69.6,53.2,29.83,WSW,243,1.0,1.0,56,0.00,,,0.00,Wunderground v.1.15,2013-07-09 06:00:00,
2013-07-08 23:05:00,69.4,54.0,29.83,SSW,207,1.0,3.0,58,0.00,,,0.00,Wunderground v.1.15,2013-07-09 06:05:00,
2013-07-08 23:15:00,68.8,54.3,29.83,South,169,2.0,2.0,60,0.00,,,0.00,Wunderground v.1.15,2013-07-09 06:15:00,
2013-07-08 23:20:00,68.3,54.3,29.84,SSW,210,1.0,3.0,61,0.00,,,0.00,Wunderground v.1.15,2013-07-09 06:20:00,
2013-07-08 23:30:00,67.6,54.1,29.83,SSW,200,2.0,3.0,62,0.00,,,0.00,Wunderground v.1.15,2013-07-09 06:30:00,
2013-07-08 23:35:00,67.3,54.3,29.83,SSE,162,2.0,3.0,63,0.00,,,0.00,Wunderground v.1.15,2013-07-09 06:35:00,
2013-07-08 23:40:00,67.0,54.0,29.84,SSW,202,1.0,1.0,63,0.00,,,0.00,Wunderground v.1.15,2013-07-09 06:40:00,
2013-07-08 23:45:00,66.8,54.2,29.84,South,189,1.0,1.0,64,0.00,,,0.00,Wunderground v.1.15,2013-07-09 06:45:00,
2013-07-08 23:50:00,66.6,54.0,29.84,South,189,0.0,0.0,64,0.00,,,0.00,Wunderground v.1.15,2013-07-09 06:50:00,
2013-07-08 23:55:00,66.4,53.8,29.84,South,179,0.0,1.0,64,0.00,,,0.00,Wunderground v.1.15,2013-07-09 06:55:00,